Back to catalog

SL-16 DEB

AliveLEO
NORAD 31799·DEBRIS·🇷🇺 Russia

Launched Jun 29, 2007 from Baikonur Cosmodrome

Loading…

Next Passes (next 24 hours)

TLE

FreshSource: Space-Track

Epoch: Sep 14, 2026, 05:13 UTC

1 31799U 07029F   26257.21754126  .00000102  00000-0  14578-3 0  9998
2 31799  70.9439 173.6898 0225262  41.2754 108.1499 13.66488397957555

Track SL-16 DEB in real time with AllMySat

Download on the App Store